User: anonymous   Login
Location: Unspecified
(0.0000°N, 0.0000°E)
Time: 04:46:12
(UTC+00:00)
Language:

Nadezhda 6 - Orbit

View from above orbital plane
View from above orbital plane
View from above satellite
View from above satellite

Ground track
Ground track

The orbit data is extracted from the following two-line orbital elements,

1 26384U 00033A   18267.44304390 +.00000028 +00000-0 +13585-4 0  9996
2 26384 097.9579 325.8935 0015543 004.8989 355.2364 14.66451364974842
Epoch (UTC): 24 September 2018 10:37:58
Eccentricity: 0.0015543
inclination: 97.9579°
perigee height: 661 km
apogee height: 683 km
right ascension of ascending node: 325.8935°
argument of perigee: 4.8989°
revolutions per day: 14.66451364
mean anomaly at epoch: 355.2364°
orbit number at epoch: 97484

The dashed part of the orbit path shows where the satellite is in the earth's shadow,  

DLR